Tracking 21076 objects as of 7-Aug-2020
HD Live streaming from Space Station
objects crossing your sky now

SL-3 R/B

Track SL-3 R/B now!
10-day predictions


NORAD ID: 11608
Int'l Code: 1979-095B
Perigee: 840.3 km
Apogee: 919.1 km
Inclination: 81.2 °
Period: 102.4 minutes
Semi major axis: 7250 km
RCS: 6.4022 m2 (large)
Launch date: October 31, 1979
Source: Commonwealth of Independent States (former USSR) (CIS)
Launch site: PLESETSK MISSILE AND SPACE COMPLEX (PKMTR)

Note: This is a ROCKET BODY
aabbcc
Your satellite tracking list
Your tracking list is empty




NASA's NSSDC Master Catalog

Two Line Element Set (TLE):
1 11608U 79095B   20220.20577403  .00000116  00000-0  62207-4 0  9999
2 11608  81.2142 177.8878 0054346 179.6327 180.4892 14.06159395 91273
Source of the keplerian elements: AFSPC